Location: Dal�� Lhota
(48.7500°N, 14.0167°E)
Time: 00:49:20
(UTC+00:00)

Cosmos 1833 Rocket - Visible Passes

Search period start: 24 January 2021 00:00
Search period end: 03 February 2021 00:00
Orbit: 834 x 838 km, 71.0° (Epoch: 23 January)

Date Brightness Start Highest point End Pass type
(mag) Time Alt. Az. Time Alt. Az. Time Alt. Az.
24 Jan 3.7 16:43:21 10° NNW 16:48:02 26° NE 16:52:41 10° E visible
24 Jan 2.8 18:26:54 10° NNW 18:32:30 70° WSW 18:34:40 38° S visible
24 Jan 5.5 20:13:45 10° WNW 20:15:22 11° W 20:16:28 11° WSW visible
25 Jan 3.7 16:26:41 10° N 16:31:14 25° NE 16:35:47 10° E visible
25 Jan 2.8 18:10:09 10° NNW 18:15:46 75° WSW 18:20:05 17° SSE visible
25 Jan 5.5 19:56:31 10° WNW 19:58:42 12° W 20:00:53 10° WSW visible
26 Jan 2.7 17:53:24 10° NNW 17:59:02 81° WSW 18:04:39 10° SSE visible
26 Jan 5.4 19:39:24 10° WNW 19:42:02 14° W 19:44:40 10° SW visible
27 Jan 2.7 17:36:39 10° NNW 17:42:18 86° WSW 17:47:55 10° SSE visible
27 Jan 5.4 19:22:22 10° WNW 19:25:21 15° W 19:28:22 10° SW visible
28 Jan 2.6 17:19:54 10° NNW 17:25:34 88° ENE 17:31:12 10° SSE visible
28 Jan 5.4 19:05:23 10° WNW 19:08:41 16° W 19:12:00 10° SW visible
29 Jan 2.6 17:03:09 10° NNW 17:08:50 82° ENE 17:14:27 10° SSE visible
29 Jan 5.3 18:48:26 10° WNW 18:52:01 17° W 18:55:35 10° SW visible
30 Jan 2.6 16:46:25 10° NNW 16:52:04 77° ENE 16:57:42 10° SSE visible
30 Jan 5.3 18:31:32 10° WNW 18:35:21 19° W 18:39:09 10° SW visible
31 Jan 6.0 06:00:56 10° ESE 06:03:00 12° E 06:05:04 10° ENE visible
31 Jan 2.7 16:29:41 10° NNW 16:35:19 72° ENE 16:40:55 10° SE visible
31 Jan 5.3 18:14:38 10° NW 18:18:39 20° W 18:22:40 10° SSW visible
01 Feb 6.3 05:44:55 10° ESE 05:46:20 11° E 05:47:46 10° E visible
01 Feb 5.2 17:57:46 10° NW 18:01:59 22° WSW 18:06:11 10° SSW visible
02 Feb 5.2 17:40:54 10° NW 17:45:17 24° WSW 17:49:39 10° SSW visible
